| time (UTC) | temp C | wind direction | speed KPH | gust KPH | rain 1hr cm | rain 24hr cm | rain mn cm | humidity % | barometer mb |
| 20260906131003 | 19 | 65 | 1.6 | 6.4 | 0.00 | 0.00 | 0.00 | 90 | 1019.9 |
| 20260906130503 | 18 | 134 | 3.2 | 6.4 | 0.00 | 0.00 | 0.00 | 91 | 1019.8 |
| 20260906130010 | 18 | 148 | 1.6 | 6.4 | 0.00 | 0.00 | 0.00 | 92 | 1019.8 |
| 20260906125504 | 18 | 79 | 1.6 | 9.7 | 0.00 | 0.00 | 0.00 | 93 | 1019.7 |
| 20260906125004 | 18 | 88 | 1.6 | 9.7 | 0.00 | 0.00 | 0.00 | 93 | 1019.4 |
| 20260906124511 | 18 | 98 | 1.6 | 9.7 | 0.00 | 0.00 | 0.00 | 94 | 1019.3 |
| 20260906124010 | 18 | 103 | 3.2 | 9.7 | 0.00 | 0.00 | 0.00 | 93 | 1019.3 |
| 20260906123507 | 18 | 84 | 4.8 | 9.7 | 0.00 | 0.00 | 0.00 | 94 | 1019.3 |
| 20260906123028 | 17 | 113 | 3.2 | 6.4 | 0.00 | 0.00 | 0.00 | 94 | 1019.2 |
| 20260906122507 | 17 | 100 | 3.2 | 6.4 | 0.00 | 0.00 | 0.00 | 94 | 1019.3 |
| 20260906122009 | 17 | 97 | 1.6 | 6.4 | 0.00 | 0.00 | 0.00 | 94 | 1019.3 |
| 20260906121530 | 17 | 69 | 1.6 | 6.4 | 0.00 | 0.00 | 0.00 | 94 | 1019.3 |
| 20260906121014 | 17 | 91 | 1.6 | 6.4 | 0.00 | 0.00 | 0.00 | 94 | 1019.3 |
| 20260906120507 | 17 | 89 | 3.2 | 6.4 | 0.00 | 0.00 | 0.00 | 94 | 1019.2 |
| 20260906120014 | 17 | 88 | 1.6 | 6.4 | 0.00 | 0.00 | 0.00 | 94 | 1019.1 |
| 20260906115506 | 17 | 82 | 1.6 | 6.4 | 0.00 | 0.00 | 0.00 | 94 | 1019.0 |
| 20260906115007 | 17 | 84 | 3.2 | 6.4 | 0.00 | 0.00 | 0.00 | 94 | 1018.8 |
| 20260906114524 | 17 | 79 | 3.2 | 6.4 | 0.00 | 0.00 | 0.00 | 94 | 1018.7 |
| 20260906114010 | 17 | 78 | 1.6 | 6.4 | 0.00 | 0.00 | 0.00 | 94 | 1018.6 |
| 20260906113514 | 17 | 99 | 3.2 | 6.4 | 0.00 | 0.00 | 0.00 | 94 | 1018.7 |
| 20260906113019 | 17 | 103 | 3.2 | 6.4 | 0.00 | 0.00 | 0.00 | 93 | 1018.6 |
| 20260906112511 | 17 | 83 | 3.2 | 6.4 | 0.00 | 0.00 | 0.00 | 93 | 1018.5 |
| 20260906112015 | 17 | 86 | 3.2 | 9.7 | 0.00 | 0.00 | 0.00 | 93 | 1018.5 |
| 20260906111521 | 17 | 82 | 3.2 | 9.7 | 0.00 | 0.00 | 0.00 | 93 | 1018.4 |
| 20260906111008 | 17 | 93 | 3.2 | 9.7 | 0.00 | 0.00 | 0.00 | 93 | 1018.4 |
| 20260906110515 | 17 | 88 | 4.8 | 9.7 | 0.00 | 0.00 | 0.00 | 93 | 1018.3 |
| 20260906110031 | 17 | 100 | 4.8 | 9.7 | 0.00 | 0.00 | 0.00 | 93 | 1018.3 |
| 20260906105507 | 17 | 101 | 4.8 | 9.7 | 0.00 | 0.00 | 0.00 | 93 | 1018.3 |
| 20260906105010 | 17 | 102 | 4.8 | 11.3 | 0.00 | 0.00 | 0.00 | 93 | 1018.4 |
| 20260906104519 | 17 | 89 | 3.2 | 11.3 | 0.00 | 0.00 | 0.00 | 93 | 1018.3 |
| 20260906104009 | 17 | 98 | 4.8 | 11.3 | 0.00 | 0.00 | 0.00 | 93 | 1018.2 |
| 20260906103511 | 17 | 101 | 4.8 | 9.7 | 0.00 | 0.00 | 0.00 | 93 | 1018.2 |
| 20260906103024 | 17 | 97 | 4.8 | 9.7 | 0.00 | 0.00 | 0.00 | 93 | 1018.3 |
| 20260906102503 | 17 | 93 | 3.2 | 9.7 | 0.00 | 0.00 | 0.00 | 93 | 1018.4 |
| 20260906102001 | 17 | 86 | 3.2 | 6.4 | 0.00 | 0.00 | 0.00 | 92 | 1018.4 |
| 20260906101504 | 17 | 77 | 4.8 | 6.4 | 0.00 | 0.00 | 0.00 | 92 | 1018.4 |
| 20260906101004 | 17 | 86 | 3.2 | 6.4 | 0.00 | 0.00 | 0.00 | 92 | 1018.2 |
| 20260906100504 | 17 | 93 | 3.2 | 6.4 | 0.00 | 0.00 | 0.00 | 92 | 1018.2 |
| 20260906100004 | 17 | 77 | 3.2 | 6.4 | 0.00 | 0.00 | 0.00 | 92 | 1018.2 |
| 20260906095502 | 17 | 96 | 3.2 | 6.4 | 0.00 | 0.00 | 0.00 | 92 | 1018.1 |
| 20260906095006 | 17 | 86 | 3.2 | 6.4 | 0.00 | 0.00 | 0.00 | 92 | 1018.2 |
| 20260906094504 | 17 | 62 | 1.6 | 6.4 | 0.00 | 0.00 | 0.00 | 92 | 1018.3 |
| 20260906094002 | 17 | 61 | 3.2 | 8.0 | 0.00 | 0.00 | 0.00 | 92 | 1018.3 |
| 20260906093501 | 17 | 72 | 3.2 | 8.0 | 0.00 | 0.00 | 0.00 | 92 | 1018.2 |
| 20260906093009 | 17 | 59 | 4.8 | 8.0 | 0.00 | 0.00 | 0.00 | 91 | 1018.1 |
| 20260906092505 | 17 | 76 | 3.2 | 6.4 | 0.00 | 0.00 | 0.00 | 91 | 1017.9 |
| 20260906092003 | 17 | 69 | 3.2 | 6.4 | 0.00 | 0.00 | 0.00 | 91 | 1017.9 |
| 20260906091504 | 18 | 89 | 3.2 | 4.8 | 0.00 | 0.00 | 0.00 | 91 | 1017.9 |
| 20260906091003 | 18 | 68 | 0.0 | 4.8 | 0.00 | 0.00 | 0.00 | 91 | 1017.9 |
| 20260906090505 | 18 | 68 | 3.2 | 4.8 | 0.00 | 0.00 | 0.00 | 91 | 1017.9 |
| 20260906090009 | 18 | 68 | 1.6 | 6.4 | 0.00 | 0.00 | 0.00 | 91 | 1018.0 |
| 20260906085504 | 18 | 68 | 1.6 | 6.4 | 0.00 | 0.00 | 0.00 | 91 | 1018.1 |
| 20260906085002 | 18 | 37 | 1.6 | 6.4 | 0.00 | 0.00 | 0.00 | 91 | 1018.1 |
| 20260906084509 | 18 | 10 | 1.6 | 6.4 | 0.00 | 0.00 | 0.00 | 91 | 1018.0 |
| 20260906084007 | 18 | 31 | 3.2 | 6.4 | 0.00 | 0.00 | 0.00 | 91 | 1018.0 |
| 20260906083502 | 18 | 5 | 3.2 | 6.4 | 0.00 | 0.00 | 0.00 | 91 | 1018.0 |
| 20260906083004 | 18 | 49 | 3.2 | 6.4 | 0.00 | 0.00 | 0.00 | 91 | 1018.0 |
| 20260906082505 | 18 | 70 | 1.6 | 4.8 | 0.00 | 0.00 | 0.00 | 91 | 1018.0 |
| 20260906082003 | 18 | 70 | 3.2 | 4.8 | 0.00 | 0.00 | 0.00 | 91 | 1017.9 |
| 20260906081503 | 18 | 76 | 1.6 | 4.8 | 0.00 | 0.00 | 0.00 | 91 | 1017.9 |
| 20260906081003 | 18 | 61 | 1.6 | 4.8 | 0.00 | 0.00 | 0.00 | 91 | 1017.9 |
| 20260906080504 | 18 | 352 | 1.6 | 4.8 | 0.00 | 0.00 | 0.00 | 91 | 1018.0 |
| 20260906080004 | 17 | 352 | 1.6 | 4.8 | 0.00 | 0.00 | 0.00 | 91 | 1018.0 |
| 20260906075502 | 17 | 352 | 1.6 | 4.8 | 0.00 | 0.00 | 0.00 | 91 | 1018.0 |
| 20260906075004 | 17 | 352 | 1.6 | 6.4 | 0.00 | 0.00 | 0.00 | 91 | 1018.0 |
| 20260906074506 | 17 | 352 | 1.6 | 6.4 | 0.00 | 0.00 | 0.00 | 92 | 1018.0 |
| 20260906074003 | 17 | 345 | 3.2 | 6.4 | 0.00 | 0.00 | 0.00 | 92 | 1018.0 |
| 20260906073504 | 17 | 329 | 3.2 | 6.4 | 0.00 | 0.00 | 0.00 | 91 | 1018.0 |
| 20260906073004 | 17 | 320 | 3.2 | 6.4 | 0.00 | 0.00 | 0.00 | 91 | 1018.0 |
| 20260906072507 | 17 | 333 | 3.2 | 6.4 | 0.00 | 0.00 | 0.00 | 91 | 1018.0 |
| 20260906072001 | 17 | 352 | 3.2 | 6.4 | 0.00 | 0.00 | 0.00 | 92 | 1017.9 |
| 20260906071503 | 17 | 5 | 3.2 | 6.4 | 0.00 | 0.00 | 0.00 | 92 | 1017.9 |
| 20260906071004 | 17 | 5 | 3.2 | 6.4 | 0.00 | 0.00 | 0.00 | 92 | 1017.9 |
| 20260906070506 | 17 | 5 | 3.2 | 6.4 | 0.00 | 0.00 | 0.00 | 92 | 1017.9 |
| 20260906070003 | 17 | 5 | 1.6 | 4.8 | 0.00 | 0.00 | 0.00 | 92 | 1017.9 |
| 20260906065503 | 17 | 5 | 3.2 | 4.8 | 0.00 | 0.00 | 0.00 | 91 | 1018.0 |
| 20260906065002 | 17 | 5 | 1.6 | 4.8 | 0.00 | 0.00 | 0.00 | 91 | 1017.9 |
| 20260906064503 | 17 | 5 | 3.2 | 4.8 | 0.00 | 0.00 | 0.00 | 91 | 1018.0 |
| 20260906064003 | 17 | 5 | 1.6 | 4.8 | 0.00 | 0.00 | 0.00 | 91 | 1018.1 |
| 20260906063505 | 17 | 5 | 3.2 | 4.8 | 0.00 | 0.00 | 0.00 | 91 | 1018.1 |
| 20260906063012 | 17 | 12 | 1.6 | 6.4 | 0.00 | 0.00 | 0.00 | 92 | 1018.1 |
| 20260906062503 | 17 | 12 | 1.6 | 6.4 | 0.00 | 0.00 | 0.00 | 92 | 1018.1 |
| 20260906062006 | 17 | 12 | 3.2 | 6.4 | 0.00 | 0.00 | 0.00 | 92 | 1018.1 |
| 20260906061508 | 17 | 5 | 1.6 | 6.4 | 0.00 | 0.00 | 0.00 | 92 | 1018.0 |
| 20260906061006 | 17 | 342 | 1.6 | 6.4 | 0.00 | 0.00 | 0.00 | 92 | 1018.0 |
| 20260906060506 | 17 | 352 | 1.6 | 6.4 | 0.00 | 0.00 | 0.00 | 92 | 1018.0 |
| 20260906060004 | 17 | 346 | 3.2 | 6.4 | 0.00 | 0.00 | 0.00 | 91 | 1017.9 |
| 20260906055503 | 17 | 351 | 3.2 | 6.4 | 0.00 | 0.00 | 0.00 | 91 | 1018.0 |
| 20260906055003 | 17 | 14 | 3.2 | 6.4 | 0.00 | 0.00 | 0.00 | 91 | 1017.9 |
| 20260906054504 | 17 | 14 | 3.2 | 6.4 | 0.00 | 0.00 | 0.00 | 91 | 1017.8 |
| 20260906054003 | 17 | 23 | 1.6 | 6.4 | 0.00 | 0.00 | 0.00 | 91 | 1017.8 |
| 20260906053503 | 17 | 36 | 1.6 | 6.4 | 0.00 | 0.00 | 0.00 | 91 | 1017.9 |
| 20260906053016 | 17 | 38 | 3.2 | 6.4 | 0.00 | 0.00 | 0.00 | 91 | 1017.9 |
| 20260906052503 | 18 | 72 | 3.2 | 6.4 | 0.00 | 0.00 | 0.00 | 91 | 1017.8 |
| 20260906052003 | 18 | 93 | 4.8 | 6.4 | 0.00 | 0.00 | 0.00 | 91 | 1017.9 |
| 20260906051512 | 18 | 75 | 3.2 | 4.8 | 0.00 | 0.00 | 0.00 | 91 | 1017.9 |
| 20260906051003 | 18 | 75 | 1.6 | 4.8 | 0.00 | 0.00 | 0.00 | 91 | 1017.8 |
| 20260906050503 | 18 | 75 | 1.6 | 6.4 | 0.00 | 0.00 | 0.00 | 91 | 1017.7 |
| 20260906050013 | 18 | 75 | 1.6 | 6.4 | 0.00 | 0.00 | 0.00 | 90 | 1017.7 |
| 20260906045502 | 18 | 61 | 3.2 | 8.0 | 0.00 | 0.00 | 0.00 | 90 | 1017.7 |
| 20260906045005 | 18 | 74 | 3.2 | 9.7 | 0.00 | 0.00 | 0.00 | 90 | 1017.7 |
| 20260906044512 | 18 | 82 | 4.8 | 12.9 | 0.00 | 0.00 | 0.00 | 90 | 1017.7 |
| 20260906044004 | 18 | 74 | 4.8 | 12.9 | 0.00 | 0.00 | 0.00 | 90 | 1017.7 |
| 20260906043503 | 18 | 69 | 4.8 | 11.3 | 0.00 | 0.00 | 0.00 | 90 | 1017.7 |
| 20260906043012 | 18 | 75 | 4.8 | 11.3 | 0.00 | 0.00 | 0.00 | 90 | 1017.6 |
| 20260906042503 | 18 | 76 | 4.8 | 11.3 | 0.00 | 0.00 | 0.00 | 90 | 1017.5 |
| 20260906042003 | 18 | 49 | 6.4 | 11.3 | 0.00 | 0.00 | 0.00 | 89 | 1017.5 |
| 20260906041512 | 18 | 69 | 4.8 | 11.3 | 0.00 | 0.00 | 0.00 | 89 | 1017.5 |
| 20260906041005 | 18 | 101 | 4.8 | 14.5 | 0.00 | 0.00 | 0.00 | 89 | 1017.5 |
| 20260906040503 | 18 | 83 | 4.8 | 14.5 | 0.00 | 0.00 | 0.00 | 89 | 1017.4 |
| 20260906040006 | 18 | 88 | 4.8 | 11.3 | 0.00 | 0.00 | 0.00 | 88 | 1017.5 |
| 20260906035503 | 18 | 65 | 4.8 | 12.9 | 0.00 | 0.00 | 0.00 | 88 | 1017.5 |
| 20260906035003 | 18 | 61 | 4.8 | 12.9 | 0.00 | 0.00 | 0.00 | 88 | 1017.6 |
| 20260906034521 | 18 | 81 | 4.8 | 12.9 | 0.00 | 0.00 | 0.00 | 87 | 1017.6 |
| 20260906034007 | 18 | 65 | 4.8 | 12.9 | 0.00 | 0.00 | 0.00 | 87 | 1017.5 |
| 20260906033504 | 18 | 76 | 4.8 | 11.3 | 0.00 | 0.00 | 0.00 | 86 | 1017.6 |
| 20260906033017 | 18 | 86 | 4.8 | 11.3 | 0.00 | 0.00 | 0.00 | 86 | 1017.6 |
| 20260906032505 | 18 | 88 | 4.8 | 16.1 | 0.00 | 0.00 | 0.00 | 85 | 1017.5 |
| 20260906032004 | 18 | 100 | 6.4 | 16.1 | 0.00 | 0.00 | 0.00 | 85 | 1017.5 |
| 20260906031512 | 18 | 88 | 8.0 | 16.1 | 0.00 | 0.00 | 0.00 | 84 | 1017.5 |
| 20260906031004 | 18 | 111 | 6.4 | 17.7 | 0.00 | 0.00 | 0.00 | 84 | 1017.4 |
| 20260906030504 | 18 | 100 | 8.0 | 20.9 | 0.00 | 0.00 | 0.00 | 84 | 1017.3 |
| 20260906030011 | 18 | 84 | 6.4 | 20.9 | 0.00 | 0.00 | 0.00 | 84 | 1017.4 |
| 20260906025505 | 19 | 107 | 8.0 | 19.3 | 0.00 | 0.00 | 0.00 | 85 | 1017.5 |
| 20260906025003 | 19 | 84 | 8.0 | 19.3 | 0.00 | 0.00 | 0.00 | 86 | 1017.6 |
| 20260906024517 | 19 | 112 | 6.4 | 14.5 | 0.00 | 0.00 | 0.00 | 86 | 1017.6 |
| 20260906024007 | 19 | 88 | 9.7 | 16.1 | 0.00 | 0.00 | 0.00 | 87 | 1017.5 |
| 20260906023502 | 19 | 76 | 8.0 | 19.3 | 0.00 | 0.00 | 0.00 | 87 | 1017.3 |
| 20260906023012 | 19 | 84 | 8.0 | 19.3 | 0.00 | 0.00 | 0.00 | 87 | 1017.3 |
| 20260906022503 | 19 | 92 | 11.3 | 17.7 | 0.00 | 0.00 | 0.00 | 88 | 1017.1 |
| 20260906022006 | 20 | 107 | 8.0 | 17.7 | 0.00 | 0.00 | 0.00 | 88 | 1017.1 |
| 20260906021516 | 20 | 40 | 8.0 | 17.7 | 0.00 | 0.00 | 0.00 | 88 | 1017.0 |
| 20260906021004 | 20 | 82 | 6.4 | 17.7 | 0.00 | 0.00 | 0.00 | 88 | 1017.0 |
| 20260906020504 | 20 | 53 | 9.7 | 17.7 | 0.00 | 0.00 | 0.00 | 88 | 1017.0 |
| 20260906020011 | 20 | 84 | 4.8 | 12.9 | 0.00 | 0.00 | 0.00 | 88 | 1017.1 |
| 20260906015505 | 20 | 117 | 4.8 | 11.3 | 0.00 | 0.00 | 0.00 | 87 | 1017.1 |
| 20260906015004 | 20 | 111 | 6.4 | 11.3 | 0.00 | 0.00 | 0.00 | 87 | 1017.1 |
| 20260906014520 | 20 | 92 | 4.8 | 14.5 | 0.00 | 0.00 | 0.00 | 86 | 1017.1 |
| 20260906014009 | 20 | 130 | 6.4 | 14.5 | 0.00 | 0.00 | 0.00 | 86 | 1017.0 |
| 20260906013508 | 20 | 82 | 6.4 | 14.5 | 0.00 | 0.00 | 0.00 | 87 | 1017.1 |
| 20260906013024 | 20 | 94 | 3.2 | 16.1 | 0.00 | 0.00 | 0.00 | 87 | 1017.1 |
| 20260906012503 | 20 | 89 | 4.8 | 17.7 | 0.00 | 0.00 | 0.00 | 88 | 1017.2 |
| 20260906012005 | 20 | 62 | 6.4 | 19.3 | 0.00 | 0.00 | 0.00 | 88 | 1017.2 |
| 20260906011506 | 20 | 49 | 4.8 | 19.3 | 0.00 | 0.00 | 0.00 | 89 | 1017.1 |
| 20260906011006 | 20 | 72 | 9.7 | 16.1 | 0.00 | 0.00 | 0.00 | 90 | 1017.1 |
| 20260906010504 | 20 | 59 | 6.4 | 14.5 | 0.00 | 0.00 | 0.00 | 90 | 1017.1 |
| 20260906010010 | 20 | 53 | 3.2 | 16.1 | 0.00 | 0.00 | 0.00 | 91 | 1017.1 |
| 20260906005504 | 20 | 81 | 4.8 | 16.1 | 0.00 | 0.00 | 0.00 | 91 | 1017.2 |
| 20260906005005 | 20 | 88 | 4.8 | 14.5 | 0.00 | 0.00 | 0.00 | 91 | 1017.1 |
| 20260906004511 | 20 | 102 | 6.4 | 14.5 | 0.00 | 0.00 | 0.00 | 90 | 1017.0 |
| 20260906004004 | 20 | 111 | 4.8 | 11.3 | 0.00 | 0.00 | 0.00 | 90 | 1016.9 |
| 20260906003506 | 20 | 76 | 3.2 | 11.3 | 0.00 | 0.00 | 0.00 | 90 | 1017.0 |
| 20260906003008 | 20 | 54 | 4.8 | 11.3 | 0.00 | 0.00 | 0.00 | 90 | 1017.1 |
| 20260906002504 | 20 | 86 | 4.8 | 12.9 | 0.00 | 0.00 | 0.00 | 90 | 1017.1 |
| 20260906002004 | 20 | 97 | 4.8 | 12.9 | 0.00 | 0.00 | 0.00 | 90 | 1017.1 |
| 20260906001512 | 20 | 105 | 4.8 | 12.9 | 0.00 | 0.00 | 0.00 | 90 | 1017.1 |
| 20260906001003 | 20 | 98 | 3.2 | 12.9 | 0.00 | 0.00 | 0.00 | 89 | 1017.0 |
| 20260906000503 | 20 | 94 | 8.0 | 16.1 | 0.00 | 0.00 | 0.00 | 89 | 1016.9 |
| 20260906000010 | 20 | 97 | 6.4 | 16.1 | 0.00 | 0.00 | 0.00 | 89 | 1017.0 |
| 20260905235503 | 20 | 66 | 8.0 | 19.3 | 0.00 | 0.00 | 0.00 | 89 | 1017.0 |
| 20260905235008 | 20 | 97 | 6.4 | 19.3 | 0.00 | 0.00 | 0.00 | 89 | 1017.0 |
| 20260905234513 | 21 | 86 | 6.4 | 17.7 | 0.00 | 0.00 | 0.00 | 88 | 1017.0 |
| 20260905234006 | 21 | 94 | 11.3 | 17.7 | 0.00 | 0.00 | 0.00 | 88 | 1017.1 |
| 20260905233506 | 21 | 115 | 8.0 | 16.1 | 0.00 | 0.00 | 0.00 | 88 | 1017.0 |
| 20260905233009 | 21 | 108 | 6.4 | 16.1 | 0.00 | 0.00 | 0.00 | 88 | 1017.0 |
| 20260905232512 | 21 | 102 | 6.4 | 16.1 | 0.00 | 0.00 | 0.00 | 88 | 1017.0 |
| 20260905232007 | 21 | 53 | 9.7 | 19.3 | 0.00 | 0.00 | 0.00 | 88 | 1017.0 |
| 20260905231512 | 21 | 86 | 9.7 | 19.3 | 0.00 | 0.00 | 0.00 | 88 | 1017.0 |
| 20260905231006 | 21 | 80 | 6.4 | 19.3 | 0.00 | 0.00 | 0.00 | 88 | 1017.0 |
| 20260905230508 | 21 | 91 | 4.8 | 22.5 | 0.00 | 0.00 | 0.00 | 88 | 1017.0 |
| 20260905230012 | 21 | 103 | 8.0 | 22.5 | 0.00 | 0.00 | 0.00 | 88 | 1016.9 |
| 20260905225504 | 21 | 98 | 12.9 | 22.5 | 0.00 | 0.00 | 0.00 | 87 | 1016.9 |
| 20260905225005 | 21 | 115 | 4.8 | 20.9 | 0.00 | 0.00 | 0.00 | 87 | 1016.8 |
| 20260905224518 | 21 | 78 | 9.7 | 20.9 | 0.00 | 0.00 | 0.00 | 87 | 1016.8 |
| 20260905224006 | 21 | 94 | 3.2 | 16.1 | 0.00 | 0.00 | 0.00 | 87 | 1017.0 |
| 20260905223505 | 21 | 92 | 9.7 | 20.9 | 0.00 | 0.00 | 0.00 | 87 | 1016.8 |
| 20260905223011 | 21 | 90 | 8.0 | 20.9 | 0.00 | 0.00 | 0.00 | 87 | 1016.9 |
| 20260905222506 | 21 | 74 | 8.0 | 22.5 | 0.00 | 0.00 | 0.00 | 87 | 1016.8 |
| 20260905222005 | 22 | 59 | 6.4 | 22.5 | 0.00 | 0.00 | 0.00 | 86 | 1016.7 |
| 20260905221529 | 22 | 55 | 6.4 | 17.7 | 0.00 | 0.00 | 0.00 | 86 | 1016.6 |
| 20260905221006 | 22 | 76 | 8.0 | 20.9 | 0.00 | 0.00 | 0.00 | 86 | 1016.6 |
| 20260905220507 | 22 | 92 | 11.3 | 22.5 | 0.00 | 0.00 | 0.00 | 86 | 1016.5 |
| 20260905220013 | 22 | 69 | 9.7 | 22.5 | 0.00 | 0.00 | 0.00 | 85 | 1016.4 |
| 20260905215506 | 22 | 9 | 9.7 | 19.3 | 0.00 | 0.00 | 0.00 | 85 | 1016.3 |
| 20260905215006 | 22 | 82 | 3.2 | 17.7 | 0.00 | 0.00 | 0.00 | 85 | 1016.3 |
| 20260905214519 | 22 | 89 | 11.3 | 19.3 | 0.00 | 0.00 | 0.00 | 84 | 1016.2 |
| 20260905214011 | 22 | 74 | 6.4 | 19.3 | 0.00 | 0.00 | 0.00 | 84 | 1016.3 |
| 20260905213505 | 22 | 65 | 11.3 | 19.3 | 0.00 | 0.00 | 0.00 | 84 | 1016.3 |
| 20260905213015 | 23 | 54 | 11.3 | 19.3 | 0.00 | 0.00 | 0.00 | 83 | 1016.2 |
| 20260905212506 | 23 | 13 | 8.0 | 22.5 | 0.00 | 0.00 | 0.00 | 83 | 1016.2 |
| 20260905212010 | 23 | 65 | 8.0 | 22.5 | 0.00 | 0.00 | 0.00 | 83 | 1016.1 |
| 20260905211526 | 23 | 71 | 8.0 | 22.5 | 0.00 | 0.00 | 0.00 | 82 | 1016.1 |
| 20260905211010 | 23 | 94 | 12.9 | 25.7 | 0.00 | 0.00 | 0.00 | 80 | 1016.1 |
| 20260905210514 | 23 | 62 | 9.7 | 25.7 | 0.00 | 0.00 | 0.00 | 81 | 1016.2 |
| 20260905210029 | 23 | 126 | 11.3 | 24.1 | 0.00 | 0.00 | 0.00 | 81 | 1015.9 |
| 20260905205506 | 23 | 76 | 16.1 | 24.1 | 0.00 | 0.00 | 0.00 | 80 | 1015.9 |
| 20260905205012 | 23 | 100 | 9.7 | 25.7 | 0.00 | 0.00 | 0.00 | 81 | 1016.0 |
| 20260905204520 | 23 | 80 | 12.9 | 25.7 | 0.00 | 0.00 | 0.00 | 81 | 1016.1 |
| 20260905204013 | 23 | 26 | 9.7 | 25.7 | 0.00 | 0.00 | 0.00 | 82 | 1016.2 |
| 20260905203507 | 23 | 91 | 11.3 | 20.9 | 0.00 | 0.00 | 0.00 | 83 | 1016.2 |
| 20260905203015 | 23 | 70 | 9.7 | 19.3 | 0.00 | 0.00 | 0.00 | 83 | 1016.2 |
| 20260905202514 | 23 | 92 | 11.3 | 22.5 | 0.00 | 0.00 | 0.00 | 83 | 1016.2 |
| 20260905202008 | 23 | 85 | 3.2 | 24.1 | 0.00 | 0.00 | 0.00 | 84 | 1016.2 |
| 20260905201525 | 23 | 84 | 12.9 | 24.1 | 0.00 | 0.00 | 0.00 | 82 | 1016.1 |
| 20260905201009 | 23 | 90 | 14.5 | 24.1 | 0.00 | 0.00 | 0.00 | 81 | 1016.1 |
| 20260905200507 | 23 | 73 | 8.0 | 20.9 | 0.00 | 0.00 | 0.00 | 82 | 1016.1 |
| 20260905200020 | 23 | 103 | 8.0 | 22.5 | 0.00 | 0.00 | 0.00 | 83 | 1016.2 |
| 20260905195515 | 23 | 96 | 12.9 | 22.5 | 0.00 | 0.00 | 0.00 | 82 | 1016.2 |
| 20260905195013 | 23 | 53 | 9.7 | 22.5 | 0.00 | 0.00 | 0.00 | 83 | 1016.2 |
| 20260905194529 | 23 | 60 | 11.3 | 22.5 | 0.00 | 0.00 | 0.00 | 83 | 1016.2 |
| 20260905194012 | 23 | 112 | 8.0 | 22.5 | 0.00 | 0.00 | 0.00 | 83 | 1016.3 |
| 20260905193514 | 23 | 68 | 9.7 | 25.7 | 0.00 | 0.00 | 0.00 | 84 | 1016.2 |
| 20260905193027 | 23 | 76 | 14.5 | 25.7 | 0.00 | 0.00 | 0.00 | 85 | 1016.2 |
| 20260905192513 | 23 | 67 | 11.3 | 24.1 | 0.00 | 0.00 | 0.00 | 84 | 1016.1 |
| 20260905192001 | 23 | 86 | 12.9 | 24.1 | 0.00 | 0.00 | 0.00 | 83 | 1016.0 |
| 20260905191502 | 24 | 65 | 9.7 | 24.1 | 0.00 | 0.00 | 0.00 | 84 | 1016.0 |
| 20260905191001 | 24 | 64 | 8.0 | 19.3 | 0.00 | 0.00 | 0.00 | 80 | 1016.0 |
| 20260905190502 | 25 | 360 | 9.7 | 19.3 | 0.00 | 0.00 | 0.00 | 80 | 1016.1 |
| 20260905190004 | 25 | 42 | 6.4 | 17.7 | 0.00 | 0.00 | 0.00 | 80 | 1016.0 |
| 20260905185502 | 25 | 19 | 6.4 | 17.7 | 0.00 | 0.00 | 0.00 | 80 | 1016.1 |
| 20260905185004 | 25 | 326 | 4.8 | 16.1 | 0.00 | 0.00 | 0.00 | 80 | 1016.1 |
| 20260905184504 | 24 | 34 | 9.7 | 16.1 | 0.00 | 0.00 | 0.00 | 79 | 1016.1 |
| 20260905184004 | 24 | 61 | 6.4 | 14.5 | 0.00 | 0.00 | 0.00 | 80 | 1016.1 |
| 20260905183502 | 24 | 44 | 6.4 | 16.1 | 0.00 | 0.00 | 0.00 | 80 | 1016.0 |
| 20260905183004 | 24 | 337 | 6.4 | 16.1 | 0.00 | 0.00 | 0.00 | 79 | 1016.2 |
| 20260905182501 | 24 | 360 | 4.8 | 16.1 | 0.00 | 0.00 | 0.00 | 80 | 1016.2 |
| 20260905182002 | 24 | 115 | 4.8 | 17.7 | 0.00 | 0.00 | 0.00 | 79 | 1016.2 |
| 20260905181502 | 24 | 20 | 9.7 | 22.5 | 0.00 | 0.00 | 0.00 | 79 | 1016.1 |
| 20260905181004 | 24 | 22 | 8.0 | 22.5 | 0.00 | 0.00 | 0.00 | 79 | 1016.1 |
| 20260905180503 | 25 | 17 | 8.0 | 16.1 | 0.00 | 0.00 | 0.00 | 78 | 1016.2 |
| 20260905180004 | 25 | 96 | 4.8 | 20.9 | 0.00 | 0.00 | 0.00 | 81 | 1016.2 |
| 20260905175502 | 24 | 352 | 4.8 | 20.9 | 0.00 | 0.00 | 0.00 | 80 | 1016.3 |
| 20260905175002 | 24 | 12 | 6.4 | 20.9 | 0.00 | 0.00 | 0.00 | 81 | 1016.2 |
| 20260905174509 | 23 | 32 | 11.3 | 20.9 | 0.00 | 0.00 | 0.00 | 80 | 1016.2 |
| 20260905174003 | 23 | 334 | 11.3 | 17.7 | 0.00 | 0.00 | 0.00 | 81 | 1016.1 |
| 20260905173503 | 23 | 32 | 6.4 | 17.7 | 0.00 | 0.00 | 0.00 | 81 | 1016.2 |
| 20260905173011 | 23 | 10 | 8.0 | 17.7 | 0.00 | 0.00 | 0.00 | 82 | 1016.3 |
| 20260905172503 | 23 | 24 | 6.4 | 17.7 | 0.00 | 0.00 | 0.00 | 83 | 1016.3 |
| 20260905172003 | 23 | 40 | 11.3 | 17.7 | 0.00 | 0.00 | 0.00 | 82 | 1016.3 |
| 20260905171504 | 23 | 78 | 8.0 | 16.1 | 0.00 | 0.00 | 0.00 | 82 | 1016.2 |
| 20260905171002 | 23 | 53 | 6.4 | 16.1 | 0.00 | 0.00 | 0.00 | 83 | 1016.2 |
| 20260905170502 | 23 | 34 | 6.4 | 14.5 | 0.00 | 0.00 | 0.00 | 84 | 1016.2 |
| 20260905170005 | 23 | 66 | 3.2 | 12.9 | 0.00 | 0.00 | 0.00 | 84 | 1016.3 |
| 20260905165503 | 23 | 62 | 6.4 | 16.1 | 0.00 | 0.00 | 0.00 | 84 | 1016.3 |
| 20260905165003 | 23 | 49 | 4.8 | 16.1 | 0.00 | 0.00 | 0.00 | 84 | 1016.3 |
| 20260905164504 | 23 | 30 | 3.2 | 11.3 | 0.00 | 0.00 | 0.00 | 83 | 1016.4 |
| 20260905164002 | 23 | 74 | 1.6 | 11.3 | 0.00 | 0.00 | 0.00 | 83 | 1016.3 |
| 20260905163503 | 23 | 34 | 4.8 | 11.3 | 0.00 | 0.00 | 0.00 | 83 | 1016.4 |
| 20260905163004 | 23 | 347 | 3.2 | 11.3 | 0.00 | 0.00 | 0.00 | 85 | 1016.3 |
| 20260905162503 | 23 | 57 | 3.2 | 14.5 | 0.00 | 0.00 | 0.00 | 85 | 1016.2 |
| 20260905162002 | 23 | 55 | 6.4 | 14.5 | 0.00 | 0.00 | 0.00 | 84 | 1016.3 |
| 20260905161503 | 23 | 105 | 3.2 | 14.5 | 0.00 | 0.00 | 0.00 | 85 | 1016.3 |
| 20260905161004 | 23 | 82 | 6.4 | 16.1 | 0.00 | 0.00 | 0.00 | 85 | 1016.3 |
| 20260905160503 | 23 | 47 | 6.4 | 16.1 | 0.00 | 0.00 | 0.00 | 86 | 1016.4 |
| 20260905160004 | 23 | 36 | 8.0 | 14.5 | 0.00 | 0.00 | 0.00 | 86 | 1016.4 |
| 20260905155501 | 23 | 5 | 6.4 | 14.5 | 0.00 | 0.00 | 0.00 | 86 | 1016.3 |
| 20260905155002 | 23 | 29 | 4.8 | 14.5 | 0.00 | 0.00 | 0.00 | 86 | 1016.3 |
| 20260905154504 | 23 | 347 | 1.6 | 14.5 | 0.00 | 0.00 | 0.00 | 87 | 1016.3 |
| 20260905154003 | 23 | 61 | 1.6 | 12.9 | 0.00 | 0.00 | 0.00 | 87 | 1016.2 |
| 20260905153506 | 22 | 63 | 1.6 | 14.5 | 0.00 | 0.00 | 0.00 | 88 | 1016.3 |
| 20260905153004 | 22 | 40 | 8.0 | 16.1 | 0.00 | 0.00 | 0.00 | 88 | 1016.3 |
| 20260905152504 | 22 | 55 | 8.0 | 16.1 | 0.00 | 0.00 | 0.00 | 88 | 1016.3 |
| 20260905152005 | 22 | 36 | 3.2 | 14.5 | 0.00 | 0.00 | 0.00 | 89 | 1016.2 |
| 20260905151504 | 22 | 23 | 6.4 | 16.1 | 0.00 | 0.00 | 0.00 | 89 | 1016.2 |
| 20260905151005 | 22 | 12 | 6.4 | 16.1 | 0.00 | 0.00 | 0.00 | 89 | 1016.0 |
| 20260905150506 | 22 | 39 | 6.4 | 16.1 | 0.00 | 0.00 | 0.00 | 88 | 1016.0 |
| 20260905150007 | 22 | 80 | 3.2 | 16.1 | 0.00 | 0.00 | 0.00 | 90 | 1015.9 |
| 20260905145503 | 22 | 90 | 6.4 | 16.1 | 0.00 | 0.00 | 0.00 | 90 | 1015.9 |
| 20260905145004 | 22 | 41 | 6.4 | 17.7 | 0.00 | 0.00 | 0.00 | 92 | 1015.8 |
| 20260905144506 | 21 | 45 | 6.4 | 17.7 | 0.00 | 0.00 | 0.00 | 93 | 1015.8 |
| 20260905144004 | 21 | 43 | 6.4 | 16.1 | 0.00 | 0.00 | 0.00 | 93 | 1015.9 |
| 20260905143504 | 21 | 105 | 6.4 | 19.3 | 0.00 | 0.00 | 0.00 | 94 | 1015.7 |
| 20260905143006 | 21 | 57 | 6.4 | 19.3 | 0.00 | 0.00 | 0.00 | 94 | 1015.6 |
| 20260905142503 | 21 | 102 | 6.4 | 19.3 | 0.00 | 0.00 | 0.00 | 94 | 1015.5 |
| 20260905142003 | 21 | 78 | 6.4 | 19.3 | 0.00 | 0.00 | 0.00 | 94 | 1015.5 |
| 20260905141506 | 21 | 117 | 6.4 | 22.5 | 0.00 | 0.00 | 0.00 | 94 | 1015.4 |
| 20260905141003 | 21 | 44 | 12.9 | 22.5 | 0.00 | 0.00 | 0.00 | 94 | 1015.3 |
| 20260905140506 | 21 | 42 | 8.0 | 22.5 | 0.00 | 0.00 | 0.00 | 94 | 1015.4 |
| 20260905140008 | 21 | 46 | 11.3 | 22.5 | 0.00 | 0.00 | 0.00 | 95 | 1015.4 |
| 20260905135503 | 21 | 96 | 6.4 | 19.3 | 0.00 | 0.00 | 0.00 | 95 | 1015.4 |
| 20260905135003 | 21 | 91 | 8.0 | 16.1 | 0.00 | 0.00 | 0.00 | 95 | 1015.3 |
| 20260905134508 | 21 | 82 | 3.2 | 22.5 | 0.00 | 0.00 | 0.00 | 95 | 1015.3 |
| 20260905134003 | 21 | 82 | 6.4 | 22.5 | 0.00 | 0.00 | 0.00 | 95 | 1015.3 |
| 20260905133503 | 21 | 86 | 8.0 | 19.3 | 0.00 | 0.00 | 0.00 | 95 | 1015.3 |
| 20260905133013 | 21 | 67 | 8.0 | 17.7 | 0.00 | 0.00 | 0.00 | 95 | 1015.3 |
| 20260905132503 | 21 | 42 | 8.0 | 17.7 | 0.00 | 0.00 | 0.00 | 95 | 1015.4 |
| 20260905132004 | 21 | 89 | 8.0 | 17.7 | 0.00 | 0.00 | 0.00 | 95 | 1015.4 |
| 20260905131525 | 21 | 47 | 11.3 | 17.7 | 0.00 | 0.00 | 0.00 | 95 | 1015.5 |